Location: Street
(51.1247°N, 2.7429°W)
Time: 09:32:00
(UTC+00:00)

Tiros 1 - Pass Details

Date: 29 November 2020
Orbit: 630 x 663 km, 48.4° (Epoch: 21 January)

Event Time Altitude Azimuth Distance (km) Brightness Sun altitude
Rises 20:14:30 0° 279° (W) 2,987 11.5 -37.7°
Reaches altitude 10° 20:17:00 10° 271° (W) 2,068 10.4 -38.1°
Enters shadow 20:17:55 15° 265° (W) 1,760 9.9 -38.2°
Maximum altitude 20:21:19 35° 206° (SSW) 1,059 - -38.7°
Drops below altitude 10° 20:25:35 10° 141° (SE) 2,043 - -39.4°
Sets 20:28:03 0° 133° (SE) 2,944 - -39.7°
